Skip Page Navigation
NASA JPL Caltech
NASA Logo - Jet Propulsion Laboratory + View the NASA Portal
+ Near-Earth Object (NEO) Program
Search JPL
JPL Home Earth Solar System Stars & Galaxies Technology
JPL Solar System Dynamics
BODIES ORBITS EPHEMERIDES TOOLS PHYSICAL DATA DISCOVERY FAQ SITE MAP
JPL Small-Body Database Browser
Search: [ help ]  
68P/Klemola
Classification: Jupiter-family Comet          SPK-ID: 1000051
Ephemeris | Orbit Diagram | Orbital Elements | Physical Parameters | Discovery Circumstances | Close-Approach Data ]

[ hide orbit diagram ]
Orbit Diagram
Note: Make sure you have Java enabled on your browser to see the applet. This applet is provided as a 3D orbit visualization tool. The applet was implemented using 2-body methods, and hence should not be used for determining accurate long-term trajectories (over several years or decades) or planetary encounter circumstances. For accurate long-term ephemerides, please instead use our Horizons system.
Orbit Viewer

Additional Notes: the orbits shown in the applet are color coded. The planets are white lines, and the asteroid/comet is a blue line. The bright white line indicates the portion of the orbit that is above the ecliptic plane, and the darker portion is below the ecliptic plane. Likewise for the asteroid/comet orbit, the light blue indicates the portion above the ecliptic plane, and the dark blue the portion below the ecliptic plane.

Orbit Viewer applet originally written and kindly provided by Osamu Ajiki (AstroArts), and further modified by Ron Baalke (JPL).


:
Orbital Elements at Epoch 2454801.5 (2008-Dec-01.0) TDB
Reference: JPL 30 (heliocentric ecliptic J2000)
 Element Value Uncertainty (1-sigma)   Units 
e 0.6406870098523979040194 9.69e-08  
a 4.8955055208880651207437 6.3684e-07 AU
q 1.7590187269943851067211 3.7882e-07 AU
i 11.143745927377530335888 1.2633e-05 deg
node 175.331926501967 6.1272e-05 deg
peri 153.9795052071384 7.0722e-05 deg
M 355.3616677714903 1.5646e-05 deg
tp 2454852.474631583796
(2009-Jan-20.97463158)
0.00017942 JED
period 3956.35035743497
10.83
0.000772
2.114e-06
d
yr
n .09099295246273378 1.7755e-08 deg/d
Q 8.031992314781744 1.0449e-06 AU

Additional Model Parameters
 Parameter Value Uncertainty (1-sigma) 
A1 [EST] 4.417742948783479E-10 6.768E-11
A2 [EST] -2.31737098945487E-11 3.946E-13
  Orbit Determination Parameters
   # obs. used (total)      541  
   data-arc span      16135 days (44.18 yr)  
   first obs. used      1965-11-01  
   last obs. used      2010-01-04  
   planetary ephem.      DE405  
   SB-pert. ephem.      SB405-CPV-2  
   condition code      0  
   fit RMS      .75204  
   data source      ORB  
   producer      Nick Mastrodemos  
   solution date      2010-Jan-08 12:27:02  

Additional Information
 Earth MOID = .754841 AU 
 T_jup = 2.524 
[ show covariance matrix ]

Ephemeris | Orbit Diagram | Orbital Elements | Physical Parameters | Discovery Circumstances | Close-Approach Data ]

Physical Parameter Table
Parameter Symbol Value Units Sigma Reference Notes
comet total magnitude M1 10.2 mag 01. 30 2 parameter fit from 148 observations, autocmod 2.4a
comet total magnitude slope K1 15.   n/a 30 autocmod 2.4a
comet nuclear magnitude M2 14.3 mag 0.9 30 from 231 observations, autocmod 2.4a
comet nuclear magnitude slope K2 5.   n/a 30 autocmod 2.4a
comet nuclear phase coefficient PC 0.03   n/a 30 autocmod 2.4a
diameter diameter 4.4 km n/a Lamy,P.L.,Toth,I.,Fernandez,Y.R.,Weaver,H.A. (to be published)  

68P/Klemola          Discovered 1965-Nov-(mid) by Klemola, A. R. at Yale-Columbia Southern Station, Argentina
discovered on plate/photo taken on 10/28-31,11/1-2
Reference: comet.disLast Updated: 2003-08-29

[ show close-approach data ]
Alternate Designations
 Perihelion 
Year
(est.)
 New-Style 
Desig
Roman
 Numeral 
Year/
 Letter 
 1987.4       1987 XIV   1987i 
 1976.6   68P/1976 P1   1976 X   1976j 
 1965.7   68P/1965 U1   1965 VI   1965j 
Ephemeris | Orbit Diagram | Orbital Elements | Physical Parameters | Discovery Circumstances | Close-Approach Data ]
ABOUT SSD CREDITS/AWARDS PRIVACY/COPYRIGHT GLOSSARY LINKS
FirstGov 2013-May-22 11:19 UT
(server date/time)  
NASA Home Page
Site Manager:   Donald K. Yeomans
Webmaster  Alan B. Chamberlin